Location: ActonStarParty
(42.4766°N, 71.4538°W)
Time: 11:54:03
(UTC-04:00)

ISS - All Passes

Search period start: 23 June 2018 00:00
Search period end: 03 July 2018 00:00
Orbit: 403 x 408 km, 51.6° (Epoch: 24 June)

Date Brightness Start Highest point End Pass type
(mag) Time Alt. Az. Time Alt. Az. Time Alt. Az.
23 Jun - 08:12:33 10° SSW 08:15:40 40° SE 08:18:47 10° ENE daylight
23 Jun - 09:49:12 10° W 09:52:13 32° NNW 09:55:14 10° NE daylight
23 Jun - 11:27:13 10° NW 11:29:27 17° N 11:31:40 10° NE daylight
23 Jun - 13:04:03 10° NW 13:06:47 23° NNE 13:09:31 10° ENE daylight
23 Jun - 14:40:17 10° WNW 14:43:35 79° SW 14:46:51 10° SE daylight
24 Jun - 07:21:10 10° S 07:23:45 22° SE 07:26:22 10° E daylight
24 Jun - 08:56:51 10° WSW 09:00:03 49° NNW 09:03:17 10° NE daylight
24 Jun - 10:34:44 10° NW 10:37:07 18° N 10:39:31 10° NE daylight
24 Jun - 12:12:03 10° NW 12:14:30 19° N 12:16:58 10° ENE daylight
24 Jun - 13:48:15 10° NW 13:51:31 58° NNE 13:54:46 10° ESE daylight
24 Jun - 15:25:25 10° W 15:27:43 18° SW 15:30:01 10° S daylight
25 Jun - 06:30:39 10° SSE 06:31:55 12° SE 06:33:11 10° ESE daylight
25 Jun - 08:04:39 10° WSW 08:07:58 85° NNW 08:11:16 10° NE daylight
25 Jun - 09:42:11 10° WNW 09:44:50 22° NNW 09:47:28 10° NE daylight
25 Jun - 11:19:56 10° NW 11:22:11 17° N 11:24:26 10° NE daylight
25 Jun - 12:56:17 10° NW 12:59:22 36° NNE 13:02:26 10° E daylight
25 Jun - 14:32:50 10° WNW 14:35:50 32° SW 14:38:48 10° SSE daylight
26 Jun - 07:12:43 10° SW 07:15:55 51° SE 07:19:08 10° ENE daylight
26 Jun - 08:49:38 10° W 08:52:33 28° NNW 08:55:29 10° NE daylight
26 Jun - 10:27:37 10° NW 10:29:50 16° N 10:32:02 10° NE daylight
26 Jun - 12:04:18 10° NW 12:07:08 26° NNE 12:09:57 10° ENE daylight
26 Jun - 13:40:35 10° WNW 13:43:51 62° SW 13:47:05 10° SE daylight
27 Jun - 06:21:06 10° SSW 06:23:57 27° SE 06:26:48 10° ENE daylight
27 Jun - 07:57:12 10° W 08:00:20 41° NNW 08:03:29 10° NE daylight
27 Jun - 09:35:09 10° NW 09:37:28 17° N 09:39:47 10° NE daylight
27 Jun - 11:12:17 10° NW 11:14:50 20° NNE 11:17:23 10° ENE daylight
27 Jun - 12:48:28 10° NW 12:51:46 72° NNE 12:55:02 10° ESE daylight
27 Jun - 14:26:02 10° W 14:27:53 14° SW 14:29:42 10° SSW daylight
28 Jun - 05:30:05 10° SSE 05:32:02 15° SE 05:34:00 10° E daylight
28 Jun - 07:04:53 10° WSW 07:08:10 69° NNW 07:11:28 10° NE daylight
28 Jun - 08:42:34 10° WNW 08:45:07 20° NNW 08:47:39 10° NE daylight
28 Jun - 10:20:10 10° NW 10:22:29 17° N 10:24:48 10° NE daylight
28 Jun - 11:56:26 10° NW 11:59:37 42° NNE 12:02:45 10° E daylight
28 Jun - 13:33:10 10° WNW 13:35:58 26° SW 13:38:45 10° SSE daylight
29 Jun - 06:12:49 10° SW 06:16:04 66° SE 06:19:20 10° ENE daylight
29 Jun - 07:49:58 10° WNW 07:52:48 25° NNW 07:55:36 10° NE daylight
29 Jun - 09:27:53 10° NW 09:30:06 16° N 09:32:19 10° NE daylight
29 Jun - 11:04:26 10° NW 11:07:21 29° NNE 11:10:17 10° E daylight
29 Jun - 12:40:47 10° WNW 12:43:59 49° SW 12:47:09 10° SE daylight
30 Jun - 05:21:01 10° SSW 05:24:02 34° SE 05:27:04 10° ENE daylight
30 Jun - 06:57:26 10° W 07:00:31 35° NNW 07:03:35 10° NE daylight
30 Jun - 08:35:26 10° NW 08:37:42 17° N 08:39:57 10° NE daylight
30 Jun - 10:12:23 10° NW 10:15:03 22° NNE 10:17:42 10° ENE daylight
30 Jun - 11:48:35 10° NW 11:51:54 88° NE 11:55:11 10° SE daylight
30 Jun - 13:26:51 10° WSW 13:27:54 11° SW 13:28:57 10° SSW daylight
01 Jul - 04:29:41 10° S 04:32:03 19° SE 04:34:27 10° E visible
01 Jul - 06:05:03 10° WSW 06:08:17 56° NNW 06:11:32 10° NE daylight
01 Jul - 07:42:51 10° WNW 07:45:18 19° N 07:47:44 10° NE daylight
01 Jul - 09:20:16 10° NW 09:22:40 18° N 09:25:04 10° ENE daylight
01 Jul - 10:56:30 10° NW 10:59:43 50° NNE 11:02:56 10° ESE daylight
01 Jul - 12:33:27 10° W 12:36:00 21° SW 12:38:31 10° S daylight
02 Jul - 05:12:50 10° SW 05:16:07 83° SE 05:19:25 10° ENE daylight
02 Jul - 06:50:13 10° WNW 06:52:55 23° NNW 06:55:38 10° NE daylight
02 Jul - 08:28:01 10° NW 08:30:15 17° N 08:32:29 10° NE daylight
02 Jul - 10:04:26 10° NW 10:07:28 33° NNE 10:10:29 10° E daylight
02 Jul - 11:40:54 10° WNW 11:43:59 38° SW 11:47:04 10° SSE daylight
